AirNav   Everest Fuels
 
 1281 users online  

KAOV Ava Bill Martin Memorial Airport
Ava, Missouri, USA

GOING TO AVA?


FAA INFORMATION EFFECTIVE 10 SEPTEMBER 2020

Location

FAA Identifier: AOV
Lat/Long: 36-58-18.7940N 092-40-55.0050W
36-58.313233N 092-40.916750W
36.9718872,-92.6819458
(estimated)
Elevation: 1311 ft. / 399.6 m (surveyed)
Variation: 02E (2000)
From city: 2 miles NW of AVA, MO
Time zone: UTC -5 (UTC -6 during Standard Time)
Zip code: 65608

Airport Operations

Airport use: Open to the public
Control tower: no
ARTCC: KANSAS CITY CENTER
FSS: COLUMBIA FLIGHT SERVICE STATION
NOTAMs facility: COU (NOTAM-D service available)
Attendance: UNATNDD
Wind indicator: lighted
Segmented circle: yes
Lights: ACTVT MIRL RY 13/31 - CTAF.
Beacon: white-green (lighted land airport)
Operates sunset to sunrise.

Airport Communications

CTAF/UNICOM: 122.7
SPRINGFIELD APPROACH: 126.35
SPRINGFIELD DEPARTURE: 126.35

Nearby radio navigation aids

VOR radial/distance  VOR name  Freq  Var
DGDr107/9.8DOGWOOD VORTAC109.4001E
SGFr122/38.8SPRINGFIELD VORTAC116.9004E

Airport Services

Fuel available: 100LL
Parking: tiedowns
Airframe service: MAJOR
Powerplant service: MAJOR
Bottled oxygen: NONE
Bulk oxygen: NONE

Runway Information

Runway 13/31

Dimensions: 3634 x 50 ft. / 1108 x 15 m
Surface: asphalt, in excellent condition
Runway edge lights: medium intensity
RUNWAY 13  RUNWAY 31
Latitude: 36-58.534085N36-58.093648N
Longitude: 092-41.169547W092-40.663890W
Elevation: 1277.0 ft.1311.0 ft.
Traffic pattern: leftleft
Runway heading: 135 magnetic, 137 true315 magnetic, 317 true
Markings: nonprecision, in good conditionnonprecision, in good condition
Visual slope indicator: 2-box SAVASI on left (3.00 degrees glide path)
Touchdown point: yes, no lightsyes, no lights
Obstructions: 33 ft. trees, 235 ft. from runway, 197 ft. right of centerline, 1:1 slope to clear
TREES 10-35' TALL, 10-175' FROM RUNWAY END, 150-250 FT RIGHT
none

Airport Ownership and Management from official FAA records

Ownership: Publicly-owned
Owner: CITY OF AVA
404 SOUTH JEFFERSON ST, P.O. BOX 967
AVA, MO 65608
Phone 417-683-5516
Manager: DAVID DAVIDSON
PO BOX 967
AVA, MO 65608
Phone 417-683-3169

Airport Operational Statistics

Aircraft based on the field: 10
Single engine airplanes: 8
Multi engine airplanes: 2
    
Aircraft operations: avg 127/week *
73% local general aviation
18% transient general aviation
8% military
<1% air taxi
* for 12-month period ending 31 December 2018

Additional Remarks

NTSD RY SAFETY AREA BYD RY 13 END, INSUF LENGTH AND LARGE DROP OFF.
100LL SELF SVC CREDIT CARD AVBL 24 HRS.
CLICK PCL 5 TIMES TO UNLOCK TERMINAL DOOR.
FOR CD CTC SPRINGFIELD APCH AT 417-868-5620/5619.

Instrument Procedures

NOTE: All procedures below are presented as PDF files. If you need a reader for these files, you should download the free Adobe Reader.

NOT FOR NAVIGATION. Please procure official charts for flight.
FAA instrument procedures published for use from 10 September 2020 at 0901Z to 08 October 2020 at 0900z.

 
IAPs - Instrument Approach Procedures
RNAV (GPS) RWY 13   download (191KB)
RNAV (GPS) RWY 31   download (182KB)
VOR-A   download (189KB)
NOTE: Special Take-Off Minimums/Departure Procedures apply   download (158KB)

Other nearby airports with instrument procedures:

1MO - Mountain Grove Memorial Airport (20 nm NE)
KTVB - Cabool Memorial Airport (30 nm E)
3DW - Downtown Airport (31 nm NW)
KPLK - M Graham Clark Downtown Airport (33 nm SW)
KBBG - Branson Airport (36 nm SW)
 
Loc | Ops | Rwys | IFR | FBO | Links
Com | Nav | Svcs | Stats | Notes

Branson Jet Center
AirBoss

 
Area around KAOV (Ava Bill Martin Memorial Airport)
 
Road maps at: MapQuest Bing Google
 
Aerial photo
WARNING: Photo may not be current or correct
Aerial photo of KAOV (Ava Bill Martin Memorial Airport)
Do you have a better or more recent aerial photo of Ava Bill Martin Memorial Airport that you would like to share? If so, please send us your photo.

 
Sectional chart

 
Airport distance calculator
Flying to Ava Bill Martin Memorial Airport? Find the distance to fly.

From to KAOV

Sunrise and sunset
Times for 27-Sep-2020
 Local
(UTC-5)
 Zulu
(UTC)
Morning civil twilight06:3911:39
Sunrise07:0512:05
Sunset18:5823:58
Evening civil twilight19:2400:24

Current date and time
Zulu (UTC)  27-Sep-2020 21:22:57
Local (UTC-5)  27-Sep-2020 16:22:57
 
METAR
KBBG 
36nm SW 
272045Z 17011KT 10SM BKN046 BKN065 29/18 A2976
KSGF 
37nm NW 
272052Z 18012G18KT 10SM FEW045 BKN055 29/18 A2970 RMK AO2 LTG DSNT N SLP045 T02940183 58026
KBPK 
38nm S 
272053Z AUTO 21006KT 10SM FEW046 SCT055 28/17 A2975 RMK AO2 SLP066 T02780167 58015
KUNO 
38nm E 
272053Z AUTO 19007KT 10SM FEW050 28/16 A2979 RMK AO2 SLP074 T02830156 56013 $
KFWB 
38nm SW 
272055Z AUTO 14003KT 10SM FEW048 SCT095 28/19 A2975 RMK AO2
KLBO 
41nm N 
272055Z AUTO 13009KT 10SM CLR 29/13 A2973 RMK AO2 LTG DSNT NW
KFLP 
43nm S 
272056Z AUTO 18007G15KT 130V210 10SM SCT047 SCT055 29/18 A2975 RMK AO2 SLP068 T02890183 58014
KHRO 
48nm SW 
272053Z AUTO 17014G19KT 10SM CLR 27/17 A2977 RMK AO2 SLP070 T02720172 55010
TAF
KBBG 
36nm SW 
271736Z 2718/2818 VRB05KT P6SM SCT250 TEMPO 2723/2801 4SM TSRA BR OVC025CB FM280100 23009KT 6SM BR BKN028 TEMPO 2801/2802 4SM TSRA BR OVC015CB FM280200 35014G23KT 4SM BR OVC012 TEMPO 2802/2803 2SM TSRA BR OVC009CB FM280600 33008KT 6SM -SHRA BR VCTS OVC020CB PROB30 2808/2809 4SM TSRA BR OVC009CB FM280900 31006KT P6SM BKN040 PROB30 2809/2810 4SM -SHRA BR OVC025
KSGF 
37nm NW 
271736Z 2718/2818 VRB05KT P6SM SCT120 FM272200 33014G23KT P6SM BKN045 TEMPO 2722/2801 2SM TSRA BR OVC025CB FM280100 01019G28KT 4SM BR OVC010 TEMPO 2801/2803 2SM TSRA BR OVC009CB FM280500 01012KT 5SM SHRA BR VCTS OVC023CB PROB30 2806/2808 4SM TSRA BR OVC015CB FM280800 33006KT P6SM BKN060 PROB30 2808/2809 4SM TSRA BR OVC025CB
KBPK 
38nm S 
271726Z 2718/2818 19008KT P6SM SCT050 BKN250 FM272300 22008G16KT P6SM VCSH SCT025 BKN050 OVC100 FM280200 30008G16KT 5SM -SHRA BR VCTS BKN025CB OVC050 TEMPO 2803/2807 VRB15G22KT 3SM -TSRA BR BKN009 OVC025CB FM281000 33010KT 5SM BR VCSH BKN015 OVC025 FM281500 31006KT P6SM SCT020 BKN050 BKN250
NOTAMs
Click for the latest NOTAMs
NOTAMs are issued by the DoD/FAA and will open in a separate window not controlled by AirNav.

 

 
 

FBO, Fuel Providers, and Aircraft Ground Support

  
 Business Name 
 
 Contact 
 
 Services / Description 
 
Fuel Prices
 
Comments
  
City of Ava, Missouri 417-840-2301
417-683-5516
[web site]
[email]
Aviation fuel, Aircraft parking (ramp or tiedown), Passenger terminal and lounge, Aircraft maintenance, Rental cars delivered, Public telephone, Computerized weather, ...

More info about City of Ava, Missouri
Phillips 66
100LL
SS $3.89 
 Updated 25-Jul-2020
 
   write
SS=Self service
Update Fuel Prices
 

Would you like to see your business listed on this page?

 If your business provides an interesting product or service to pilots, flight crews, aircraft, or users of the Ava Bill Martin Memorial Airport, you should consider listing it here.  To start the listing process, click on the button below
 
Add a business
 

Other Pages about Ava Bill Martin Memorial Airport

Update a link
 
Copyright © AirNav, LLC. All rights reserved. Privacy Policy  Contact